Temperature
3 2 2 1 1 1 0 -0 -0 -1 -1 -0 -0 -0 -0 -0 -0 0 1 1 1 1 0 -0 -0 -0 -1 -0 -0 0 1 1 2 3 3 4 5 5
2 1 1 1 0 -0 -1 -1 -1 -1 -2 -1 -1 -1 -1 -2 -2 -1 -1 -1 -1 -1 -1 -1 -1 -1 -1 -1 -1 -1 -0 0 1 2 2 3 4 4
1 0 -0 -1 -1 -1 -2 -2 -2 -2 -2 -2 -2 -2 -2 -2 -2 -2 -2 -2 -2 -2 -2 -2 -2 -2 -2 -1 -1 -1 -1 -0 0 1 1 2 3 3
-0 -1 -1 -2 -2 -3 -3 -3 -3 -3 -3 -3 -3 -3 -3 -3 -3 -3 -3 -3 -3 -3 -2 -2 -2 -2 -2 -2 -2 -2 -1 -1 -1 0 1 1 2 2
-2 -2 -3 -3 -4 -4 -4 -4 -4 -4 -4 -4 -4 -4 -4 -4 -3 -3 -3 -3 -3 -3 -3 -3 -3 -3 -3 -2 -2 -2 -2 -2 -1 -1 -0 0 1 1
-3 -3 -4 -4 -5 -5 -5 -5 -5 -4 -4 -4 -4 -4 -4 -4 -4 -4 -4 -4 -3 -3 -3 -3 -3 -3 -3 -3 -3 -3 -2 -2 -2 -1 -1 -1 -0 0
-3 -4 -4 -5 -5 -5 -5 -4 -4 -4 -4 -4 -4 -4 -4 -4 -4 -4 -4 -4 -4 -4 -4 -3 -3 -3 -3 -3 -3 -3 -3 -3 -3 -2 -2 -1 -1 -0
-4 -4 -5 -5 -5 -5 -5 -4 -4 -4 -4 -4 -4 -4 -4 -4 -4 -4 -4 -4 -4 -4 -4 -4 -4 -4 -3 -3 -3 -4 -4 -4 -3 -3 -2 -2 -1 -1
-5 -5 -5 -5 -5 -5 -5 -5 -5 -5 -4 -4 -4 -4 -4 -4 -4 -4 -4 -4 -4 -4 -5 -4 -4 -4 -4 -4 -4 -4 -4 -4 -4 -4 -3 -2 -2 -2
-5 -5 -5 -5 -5 -5 -5 -5 -4 -4 -4 -4 -4 -4 -4 -4 -4 -4 -4 -4 -5 -4 -5 -5 -5 -4 -4 -4 -4 -5 -5 -5 -5 -4 -4 -3 -3 -2
-5 -5 -5 -5 -5 -5 -5 -5 -4 -4 -4 -4 -4 -4 -4 -4 -4 -4 -4 -4 -4 -4 -4 -5 -5 -5 -5 -5 -4 -5 -5 -5 -5 -5 -4 -4 -4 -3
-5 -5 -6 -6 -5 -5 -5 -5 -5 -4 -4 -4 -4 -4 -4 -4 -4 -4 -4 -4 -4 -5 -4 -5 -5 -5 -5 -5 -4 -5 -5 -5 -5 -5 -5 -5 -4 -4
-6 -6 -6 -6 -6 -5 -5 -5 -4 -4 -4 -4 -4 -4 -4 -4 -4 -4 -4 -5 -5 -5 -5 -5 -5 -5 -5 -5 -5 -5 -5 -5 -5 -5 -5 -5 -5 -4
-6 -6 -6 -6 -6 -5 -5 -5 -5 -5 -5 -5 -5 -5 -5 -5 -5 -5 -5 -5 -5 -5 -5 -6 -6 -6 -6 -6 -6 -6 -5 -5 -6 -6 -5 -5 -5 -5
-6 -6 -6 -6 -6 -6 -6 -6 -5 -5 -5 -5 -5 -5 -5 -5 -5 -5 -5 -5 -6 -6 -6 -6 -6 -6 -6 -6 -6 -6 -6 -6 -6 -6 -6 -6 -5 -5
-6 -6 -6 -6 -6 -6 -6 -6 -6 -6 -6 -6 -6 -6 -6 -6 -6 -6 -6 -6 -6 -6 -6 -6 -7 -7 -6 -6 -6 -6 -6 -6 -6 -6 -6 -6 -6 -6
-6 -6 -6 -7 -7 -6 -6 -6 -6 -6 -6 -6 -6 -6 -6 -6 -6 -6 -6 -6 -7 -6 -6 -6 -7 -7 -7 -7 -7 -7 -7 -7 -7 -6 -6 -6 -6 -6
-7 -7 -7 -7 -7 -7 -7 -7 -6 -6 -7 -7 -6 -6 -6 -6 -6 -6 -7 -7 -7 -7 -7 -7 -7 -7 -7 -7 -7 -7 -7 -7 -7 -7 -7 -7 -7 -6
-7 -7 -7 -7 -7 -7 -7 -7 -7 -7 -7 -7 -7 -7 -7 -7 -7 -7 -7 -7 -7 -7 -7 -7 -7 -7 -8 -8 -7 -7 -7 -7 -7 -7 -7 -7 -7 -6
-8 -8 -8 -8 -8 -8 -8 -8 -8 -8 -8 -8 -7 -7 -7 -7 -7 -7 -7 -7 -7 -7 -7 -7 -7 -7 -7 -7 -8 -7 -7 -7 -7 -7 -7 -8 -8 -7
-8 -8 -8 -8 -8 -8 -8 -8 -8 -8 -8 -8 -8 -8 -7 -7 -7 -7 -7 -7 -7 -7 -8 -8 -7 -8 -8 -8 -8 -8 -7 -8 -8 -8 -8 -8 -8 -8
-9 -8 -8 -8 -8 -8 -8 -8 -8 -8 -8 -8 -8 -8 -8 -8 -8 -8 -8 -8 -8 -8 -8 -8 -8 -8 -8 -9 -9 -8 -8 -8 -8 -9 -9 -9 -9 -9
-9 -9 -9 -9 -9 -9 -9 -9 -9 -8 -8 -8 -8 -8 -8 -8 -8 -8 -8 -8 -8 -8 -8 -8 -9 -9 -9 -9 -9 -9 -9 -9 -9 -9 -9 -9 -9 -9
Wind_Speed
9 10 9 8 8 8 8 9 12 20 19 11 7 7 7 12 19 18 15 23 28 29 28 28 29 30 31 32 33 34 35 35 35 36 36 36 37 37
8 9 10 9 8 8 8 9 9 14 21 13 8 8 9 11 22 20 17 27 29 30 30 30 30 31 31 31 32 33 34 34 35 35 36 36 35 35
10 10 11 10 9 8 8 9 9 10 19 19 9 7 9 10 11 13 16 15 18 28 31 31 31 31 31 30 31 31 32 33 33 34 35 35 35 34
11 10 11 11 12 10 10 11 10 10 14 21 15 8 10 10 11 11 12 15 12 25 30 31 31 31 31 30 30 30 31 31 32 32 33 34 34 34
11 11 12 13 15 13 13 13 12 14 12 16 18 11 9 10 11 12 14 12 15 22 26 28 29 30 29 29 28 29 29 29 30 31 31 32 32 32
12 12 14 14 16 16 16 15 14 15 14 15 17 14 11 10 10 11 12 10 12 13 18 21 25 27 27 27 27 27 27 27 28 29 30 30 29 30
12 12 14 19 24 21 18 14 13 14 14 15 15 15 13 10 10 10 13 11 10 10 10 12 11 9 11 19 23 24 25 26 27 28 28 28 28 28
12 11 13 18 22 27 29 28 23 17 14 14 15 15 15 13 11 11 12 13 12 5 9 11 8 9 8 7 18 23 24 24 24 25 25 26 25 26
12 12 14 16 22 14 21 27 25 29 27 19 17 17 16 14 13 15 14 14 14 6 7 10 7 9 7 11 21 22 22 22 22 22 21 22 23 23
12 13 15 14 16 18 15 14 15 17 20 16 14 16 17 15 14 15 16 15 14 10 9 11 8 8 9 7 17 21 22 21 21 20 20 19 18 19
12 13 16 15 24 29 20 16 17 15 20 26 26 25 27 28 22 12 11 11 12 8 7 7 6 6 6 6 11 20 21 20 19 19 19 18 17 15
11 12 21 23 27 29 18 15 18 16 14 16 18 20 18 19 24 14 10 11 10 7 6 6 5 4 4 5 7 7 9 14 17 17 17 16 16 9
12 11 12 25 29 30 27 17 20 20 14 13 12 11 10 9 10 9 9 10 11 8 4 5 5 5 5 3 3 5 5 5 5 7 11 14 15 11
13 12 14 28 30 31 24 23 28 24 10 9 10 10 9 8 7 8 9 9 9 10 6 6 5 5 5 4 3 3 4 4 4 4 4 9 11 14
15 24 28 31 29 21 23 27 22 11 9 10 10 9 7 7 6 6 6 7 7 7 7 7 6 5 6 5 3 3 2 3 4 4 4 4 4 4
16 20 27 26 21 20 19 15 9 8 10 10 9 8 7 6 6 6 5 5 5 5 6 7 8 8 6 5 4 3 3 3 3 4 4 3 3 4
18 14 11 10 9 8 9 8 7 7 8 8 8 8 7 6 6 5 4 4 5 4 4 5 6 6 6 4 4 5 4 4 4 4 4 4 4 5
21 12 11 10 10 10 10 9 7 7 7 8 7 7 7 6 5 4 5 5 5 5 5 4 5 4 3 5 9 6 5 5 4 5 5 5 6 5
14 10 10 10 10 9 9 9 8 8 7 7 8 7 6 6 5 5 5 5 5 5 5 5 5 6 6 6 5 11 8 6 5 6 7 7 8 7
9 10 10 10 9 9 9 9 8 8 7 7 7 7 6 6 6 5 5 5 5 5 4 4 6 7 8 6 4 4 12 8 6 7 7 6 7 10
10 10 10 9 9 9 9 8 8 8 8 7 7 7 6 6 6 5 5 8 6 5 5 6 7 9 4 3 4 5 5 12 11 7 6 6 7 7
10 11 10 9 9 9 9 8 8 8 8 7 7 6 6 5 6 6 5 5 5 5 6 5 4 4 5 6 8 8 7 6 11 17 17 14 7 7
11 11 10 9 8 8 8 8 9 8 7 7 6 6 5 5 5 5 5 5 5 5 5 4 4 4 6 7 8 8 9 8 7 8 10 18 24 25
Wind_Direction
263 264 264 264 260 260 259 258 274 287 286 274 264 264 278 286 289 291 280 279 279 278 277 276 275 274 273 272 270 268 267 265 264 263 261 257 253 246
270 272 272 272 269 264 262 262 259 271 283 282 268 263 268 277 281 283 284 285 283 280 279 279 277 276 274 272 270 268 266 263 262 260 260 257 255 251
285 285 283 284 283 278 273 269 266 265 277 284 276 268 264 269 276 276 279 278 277 278 277 277 277 277 276 274 271 268 266 263 261 259 258 256 254 252
289 290 291 294 290 287 283 278 275 270 274 283 285 278 270 269 272 272 277 277 271 276 276 275 275 276 276 274 272 270 267 264 262 260 258 256 254 252
281 283 285 287 286 284 282 280 278 277 273 277 283 282 275 272 274 273 271 270 271 273 273 274 274 275 275 275 273 270 267 264 262 259 258 258 256 253
272 272 277 278 279 280 280 276 274 273 271 271 276 279 277 268 266 272 274 264 265 267 268 268 270 272 273 274 274 272 270 267 263 260 256 255 255 254
271 270 273 281 283 284 282 276 271 272 274 274 276 278 278 275 271 270 274 273 264 258 259 260 262 261 265 269 271 274 273 270 266 261 258 255 252 250
280 279 281 285 287 288 288 288 285 281 279 277 280 280 281 277 274 272 275 278 277 239 249 257 247 251 248 242 260 266 268 269 268 265 260 255 253 249
286 288 292 292 293 285 285 286 285 284 283 280 278 278 279 276 274 275 271 272 273 261 260 268 252 254 249 253 261 263 264 266 267 266 265 258 252 249
285 286 286 285 284 286 279 274 270 272 273 274 267 267 268 268 262 264 268 270 268 259 245 264 257 248 249 244 258 261 264 265 265 265 263 261 257 250
285 285 288 286 287 292 291 284 282 278 279 276 273 272 270 272 270 267 261 264 270 259 222 239 249 242 241 245 251 256 259 261 262 262 259 257 254 250
289 284 289 291 292 294 292 286 286 285 281 279 277 276 275 274 275 268 263 268 271 266 214 216 226 214 245 242 236 242 253 260 261 260 257 253 247 242
297 295 290 295 296 296 296 291 288 290 284 280 282 278 269 260 256 249 242 250 260 259 225 215 217 205 219 256 246 227 221 230 250 259 258 252 243 230
299 296 293 297 298 298 299 295 296 299 292 287 285 281 277 271 262 250 241 236 241 252 245 230 229 212 212 218 236 239 220 215 213 223 226 248 248 237
294 296 299 301 303 301 297 297 299 296 290 289 286 282 274 269 268 265 251 238 242 242 238 233 236 226 217 214 207 206 216 227 213 213 214 216 218 220
295 295 298 299 297 294 296 297 289 281 285 283 283 280 277 273 271 265 259 243 243 242 228 230 234 230 226 214 208 213 202 212 210 203 202 209 205 197
303 298 296 294 290 289 290 287 285 286 291 284 282 283 281 276 270 257 248 236 226 227 223 219 226 228 231 217 219 221 216 217 211 198 196 215 222 211
308 301 299 297 296 297 297 296 293 291 290 288 285 281 279 275 269 254 243 239 234 229 223 207 200 210 227 243 230 230 223 220 213 206 202 215 233 227
306 298 295 295 296 297 296 295 295 292 291 290 288 284 280 274 265 259 246 235 232 231 225 203 195 201 217 238 247 219 218 221 214 216 217 219 230 230
292 293 294 294 295 295 294 294 296 295 291 286 284 280 275 271 266 260 250 234 231 231 228 212 204 208 219 227 234 233 216 216 217 226 228 228 237 243
295 294 291 291 293 293 292 291 290 291 288 285 284 279 272 269 266 259 253 253 243 232 233 231 227 224 216 207 242 247 235 226 227 225 219 226 238 239
294 295 292 289 291 291 290 289 288 286 286 283 281 277 271 265 263 259 252 250 244 240 242 241 218 209 206 225 242 251 253 244 244 247 245 236 227 229
295 295 293 291 289 288 287 287 286 285 283 281 279 276 271 267 261 256 256 253 251 246 245 242 227 219 227 232 243 250 253 253 249 249 251 251 250 251
Height
1482 1479 1475 1472 1469 1466 1463 1460 1454 1441 1430 1431 1432 1432 1432 1431 1429 1426 1424 1422 1421 1419 1417 1415 1414 1412 1410 1409 1409 1409 1409 1411 1412 1414 1417 1419 1422 1425
1474 1470 1466 1463 1460 1457 1453 1450 1447 1440 1425 1419 1420 1421 1421 1420 1419 1416 1414 1412 1411 1409 1407 1405 1404 1402 1400 1399 1398 1398 1398 1399 1401 1403 1405 1408 1411 1414
1465 1461 1457 1454 1449 1446 1443 1439 1436 1432 1422 1410 1410 1411 1410 1409 1408 1406 1404 1402 1399 1398 1397 1395 1393 1392 1390 1389 1388 1388 1388 1389 1390 1392 1394 1397 1400 1403
1455 1451 1447 1443 1439 1435 1431 1428 1424 1422 1417 1406 1399 1400 1400 1399 1397 1395 1393 1391 1389 1388 1386 1385 1383 1382 1380 1379 1378 1378 1378 1378 1380 1381 1384 1386 1389 1393
1446 1442 1437 1433 1428 1424 1421 1417 1414 1411 1408 1401 1392 1391 1390 1389 1387 1384 1382 1380 1378 1377 1376 1374 1373 1371 1370 1369 1369 1368 1368 1368 1369 1371 1373 1376 1379 1382
1437 1432 1428 1424 1419 1414 1410 1407 1404 1400 1397 1393 1386 1382 1380 1379 1377 1374 1371 1369 1367 1367 1365 1364 1363 1362 1361 1360 1360 1359 1358 1358 1359 1361 1363 1365 1368 1372
1427 1423 1419 1415 1411 1407 1403 1399 1396 1392 1388 1384 1379 1375 1372 1370 1368 1366 1362 1359 1357 1357 1354 1353 1353 1352 1351 1351 1350 1349 1349 1349 1349 1351 1353 1356 1359 1362
1418 1413 1410 1405 1401 1398 1395 1392 1389 1384 1380 1376 1372 1368 1365 1363 1361 1358 1355 1352 1348 1348 1346 1343 1344 1342 1342 1342 1341 1341 1340 1340 1340 1342 1344 1346 1349 1353
1410 1405 1400 1397 1393 1389 1385 1381 1379 1376 1373 1369 1364 1360 1357 1355 1353 1350 1347 1344 1341 1340 1339 1334 1334 1333 1334 1334 1334 1333 1332 1332 1332 1333 1335 1337 1341 1344
1402 1398 1392 1387 1384 1380 1375 1371 1368 1365 1363 1359 1355 1351 1348 1346 1344 1341 1338 1335 1332 1331 1331 1328 1326 1325 1326 1325 1326 1325 1325 1325 1325 1326 1327 1330 1333 1336
1394 1390 1385 1380 1376 1373 1368 1362 1358 1355 1352 1349 1346 1342 1339 1337 1335 1332 1329 1327 1323 1322 1322 1320 1318 1318 1318 1317 1318 1318 1318 1318 1319 1319 1321 1323 1326 1329
1384 1380 1377 1373 1368 1364 1360 1354 1349 1345 1342 1338 1335 1332 1329 1327 1326 1324 1321 1319 1317 1314 1313 1313 1312 1313 1311 1311 1311 1311 1312 1312 1313 1314 1315 1317 1320 1323
1376 1371 1367 1364 1359 1355 1352 1346 1341 1337 1333 1329 1325 1322 1319 1317 1315 1314 1313 1311 1310 1308 1308 1308 1306 1306 1307 1306 1306 1307 1307 1308 1308 1309 1310 1312 1315 1318
1369 1364 1359 1355 1351 1347 1342 1337 1333 1329 1325 1321 1317 1314 1311 1309 1307 1306 1304 1303 1302 1302 1302 1302 1301 1301 1302 1302 1303 1303 1304 1304 1305 1305 1307 1309 1311 1314
1362 1357 1352 1347 1342 1337 1332 1329 1325 1321 1317 1314 1310 1307 1305 1303 1300 1298 1297 1296 1296 1295 1295 1296 1296 1296 1297 1298 1299 1300 1300 1301 1302 1303 1304 1306 1308 1310
1353 1347 1342 1338 1333 1329 1325 1321 1318 1314 1311 1307 1304 1301 1298 1296 1294 1293 1291 1291 1290 1290 1290 1290 1291 1292 1292 1294 1295 1296 1297 1298 1299 1300 1302 1303 1305 1307
1345 1339 1334 1329 1325 1321 1317 1314 1311 1308 1305 1301 1298 1295 1293 1291 1289 1288 1287 1286 1286 1285 1286 1286 1286 1287 1288 1290 1290 1291 1293 1294 1295 1297 1299 1299 1301 1303
1338 1332 1328 1323 1319 1315 1312 1308 1305 1302 1299 1296 1293 1291 1289 1287 1285 1284 1283 1282 1282 1281 1282 1282 1283 1283 1284 1285 1286 1286 1288 1289 1291 1293 1294 1295 1296 1298
1331 1326 1322 1318 1314 1310 1307 1303 1300 1297 1294 1291 1288 1286 1284 1282 1281 1280 1279 1278 1278 1278 1278 1278 1279 1279 1280 1279 1280 1282 1283 1284 1285 1287 1288 1289 1290 1292
1325 1320 1316 1312 1309 1305 1301 1298 1295 1291 1289 1286 1283 1281 1279 1278 1276 1275 1274 1274 1274 1273 1274 1274 1274 1275 1275 1275 1275 1276 1277 1278 1279 1280 1281 1282 1283 1285
1319 1314 1310 1307 1303 1299 1296 1292 1289 1286 1283 1281 1279 1277 1275 1273 1272 1271 1270 1270 1269 1269 1269 1269 1269 1270 1270 1271 1270 1269 1270 1272 1273 1273 1274 1275 1276 1277
1313 1308 1304 1301 1297 1293 1290 1287 1284 1281 1278 1276 1274 1272 1270 1269 1267 1266 1266 1265 1264 1264 1263 1263 1264 1264 1264 1264 1263 1262 1263 1264 1265 1266 1266 1267 1267 1266
1306 1302 1298 1295 1291 1288 1284 1281 1278 1276 1273 1271 1269 1267 1265 1264 1262 1261 1260 1260 1259 1258 1258 1257 1257 1257 1257 1257 1256 1256 1255 1255 1256 1256 1256 1257 1258 1258